TimeEST,TemperatureF,Dew PointF,Humidity,Sea Level PressureIn,VisibilityMPH,Wind Direction,Wind SpeedMPH,Gust SpeedMPH,PrecipitationIn,Events,Conditions,WindDirDegrees,DateUTC
12:52 AM,41.0,36.0,82,29.97,10.0,North,3.5,-,N/A,,Scattered Clouds,350,2012-11-08 05:52:00
1:52 AM,41.0,36.0,82,29.98,10.0,NNW,3.5,-,N/A,,Partly Cloudy,330,2012-11-08 06:52:00
2:52 AM,39.9,35.1,83,29.99,10.0,NNW,3.5,-,N/A,,Scattered Clouds,340,2012-11-08 07:52:00
3:52 AM,39.0,34.0,82,29.99,10.0,WNW,5.8,-,N/A,,Scattered Clouds,300,2012-11-08 08:52:00
4:52 AM,39.9,34.0,79,30.01,10.0,NNW,3.5,-,N/A,,Overcast,330,2012-11-08 09:52:00
5:52 AM,37.9,34.0,86,30.03,9.0,WNW,3.5,-,N/A,,Scattered Clouds,290,2012-11-08 10:52:00
6:52 AM,37.0,34.0,89,30.06,8.0,NW,4.6,-,N/A,,Partly Cloudy,320,2012-11-08 11:52:00
7:52 AM,42.1,35.1,76,30.08,8.0,NW,3.5,-,N/A,,Partly Cloudy,320,2012-11-08 12:52:00
8:52 AM,48.0,36.0,63,30.10,10.0,NW,4.6,-,N/A,,Scattered Clouds,310,2012-11-08 13:52:00
9:52 AM,55.0,32.0,42,30.10,10.0,NW,6.9,-,N/A,,Partly Cloudy,320,2012-11-08 14:52:00
10:52 AM,57.0,26.1,30,30.11,10.0,NW,11.5,23.0,N/A,,Partly Cloudy,320,2012-11-08 15:52:00
11:52 AM,60.8,24.8,25,30.09,10.0,NNW,13.8,20.7,N/A,,Clear,340,2012-11-08 16:52:00
12:52 PM,62.1,25.0,24,30.06,10.0,Variable,5.8,-,N/A,,Clear,0,2012-11-08 17:52:00
1:52 PM,64.0,23.0,21,30.05,10.0,Variable,6.9,19.6,N/A,,Partly Cloudy,0,2012-11-08 18:52:00
2:52 PM,64.9,19.0,17,30.05,10.0,North,11.5,-,N/A,,Clear,350,2012-11-08 19:52:00
3:52 PM,64.0,21.0,19,30.05,10.0,WNW,8.1,16.1,N/A,,Clear,300,2012-11-08 20:52:00
4:52 PM,61.0,21.9,22,30.07,10.0,NW,8.1,-,N/A,,Clear,320,2012-11-08 21:52:00
5:52 PM,55.0,21.0,27,30.09,10.0,NNW,4.6,-,N/A,,Clear,340,2012-11-08 22:52:00
6:52 PM,51.1,21.9,32,30.12,10.0,Calm,Calm,-,N/A,,Clear,0,2012-11-08 23:52:00
7:52 PM,51.1,23.0,33,30.13,10.0,NW,3.5,-,N/A,,Clear,320,2012-11-09 00:52:00
8:52 PM,48.0,24.1,39,30.14,10.0,NNW,6.9,-,N/A,,Clear,340,2012-11-09 01:52:00
9:52 PM,46.0,24.1,42,30.16,10.0,North,6.9,-,N/A,,Clear,350,2012-11-09 02:52:00
10:52 PM,45.0,25.0,46,30.16,10.0,NNW,6.9,-,N/A,,Clear,340,2012-11-09 03:52:00
11:52 PM,43.0,26.1,51,30.16,10.0,North,3.5,-,N/A,,Clear,360,2012-11-09 04:52:00